Regional Weather Roundup
Issued by NWS Northern Indiana

Home | Current Version | Previous Version | Graphics & Text | Print | Product List | Glossary On
Versions: 1 2 3 4 5 6 7 8 9 10 11 12 13 14 15 16 17 18 19 20 21 22 23 24 25 26 27 28 29 30 31 32 33 34 35 36 37 38 39 40 41 42 43 44 45 46 47 48 49 50
000
ASUS43 KIWX 201000
RWRIWX

KIWX WEATHER ROUNDUP
NATIONAL WEATHER SERVICE NORTHERN INDIANA
600 AM EDT MON OCT 20 2014

NOTE: "FAIR" INDICATES FEW OR NO CLOUDS BELOW 12,000 FEET WITH NO
SIGNIFICANT WEATHER AND/OR OBSTRUCTIONS TO VISIBILITY.

* THESE STATIONS ARE NOT UNDER NWS QUALITY CONTROL. THEY ALSO MAY NOT
  REPORT WEATHER SUCH AS PRECIPITATION OR FOG.

INZ001>027-201100-
NORTHERN INDIANA

CITY           SKY/WX    TMP DP  RH WIND       PRES   REMARKS
GARY*          PTCLDY    52  45  76 SW12      29.84F
SOUTH BEND     PTCLDY    50  43  77 SW12      29.85F
GOSHEN         CLOUDY    49  44  83 S10       29.87F
ANGOLA*        CLOUDY    46  37  71 S8        29.87F
FORT WAYNE     CLOUDY    48  43  82 S9        29.92F
PERU/GRISSOM   CLOUDY    51  47  88 SW12G20   29.90F

$$
INZ028>050-201100-
CENTRAL INDIANA

CITY           SKY/WX    TMP DP  RH WIND       PRES   REMARKS
LAFAYETTE      CLOUDY    50  44  80 SW7       29.91F
KOKOMO*        CLOUDY    50  43  76 SW9       29.92F
MUNCIE*        CLOUDY    49  43  80 SW12      29.94F
INDIANAPOLIS   LGT RAIN  49  43  80 S9        29.96F

$$
MIZ043>046-050>051-056>058-064>065-071>073-077>080-201100-
SOUTHWEST LOWER MICHIGAN

CITY           SKY/WX    TMP DP  RH WIND       PRES   REMARKS
BATTLE CREEK   CLOUDY    48  43  82 S10       29.85F
BENTON HARBOR  CLOUDY    49  44  83 S8        29.83F
COLDWATER*     CLOUDY    48  44  86 SW7       29.86F
HILLSDALE*     CLOUDY    47  45  95 S6        29.86F
HOLLAND        MOCLDY    53  48  83 SW8       29.81F
GRAND RAPIDS   PTCLDY    49  45  86 S8        29.81F
KALAMAZOO      CLOUDY    48  44  86 S10       29.85S
STURGIS*       CLOUDY    48  45  87 S10       29.85F
THREE RIVERS*  CLOUDY    49  45  86 SW8       29.85F

$$
OHZ001>008-015>018-024>025-201100-
NORTHWEST OHIO

CITY           SKY/WX    TMP DP  RH WIND       PRES   REMARKS
DEFIANCE       CLOUDY    48  42  80 S9        29.92F
FINDLAY        MOCLDY    48  42  80 SW8       29.93F
TOLEDO EXPRESS LGT RAIN  47  41  80 SW7       29.91F
TOLEDO METCALF PTCLDY    47  40  76 S8        29.93F
LIMA           LGT RAIN  48  42  80 S9        29.95F

$$
AND FOR LAKE MICHIGAN COASTAL AND OPEN LAKE BUOY OBSERVATIONS

STATION/POSITION TEMP    WIND        PRES    VSBY  WAVE
                 AIR SEA DIR/SP/G                  HT/PER
                 (F)     (DEG/KT/KT) (MB)    (MI)  (FT/S)
CALUMET HARBOR    51     210/  8/ 11 1008.9F
MICHIGAN CITY     52     170/ 16/ 21   N/A
SAINT JOSEPH      51                 1010.8S
SOUTH LAKE BUOY   55 54  230/ 17/ 21 1008.9F         5/ 6

$$
&&


USA.gov is the U.S. government's official web portal to all federal, state and local government web resources and services.